Wheeler Lake Weather Center

Moon Phase Calendar



Wheeler Lake Water Level
Online Cameras

 


      

Current Conditions in Trinity
12/2/2023 3:02:07 PM

64°F
Feels Like 65
Rain
Humidity
98%
Pressure
29.97"
Wind
5.8 mph (NNE)
Dew Point
64°F
UV Index
0/10 (Low)
Visibility
2 mi

Hourly Forecast

Date & Time Sat, Dec 2
3:00 PM
Sat, Dec 2
4:00 PM
Sat, Dec 2
5:00 PM
Sat, Dec 2
6:00 PM
Sat, Dec 2
7:00 PM
Sat, Dec 2
8:00 PM
Sat, Dec 2
9:00 PM
Sat, Dec 2
10:00 PM
Sat, Dec 2
11:00 PM
Sun, Dec 3
12:00 AM
Sun, Dec 3
1:00 AM
Sun, Dec 3
2:00 AM
Sun, Dec 3
3:00 AM
Sun, Dec 3
4:00 AM
Sun, Dec 3
5:00 AM
Sun, Dec 3
6:00 AM
Sun, Dec 3
7:00 AM
Sun, Dec 3
8:00 AM
Sun, Dec 3
9:00 AM
Sun, Dec 3
10:00 AM
Sun, Dec 3
11:00 AM
Sun, Dec 3
12:00 PM
Sun, Dec 3
1:00 PM
Sun, Dec 3
2:00 PM
Sun, Dec 3
3:00 PM
Sun, Dec 3
4:00 PM
Sun, Dec 3
5:00 PM
Sun, Dec 3
6:00 PM
Sun, Dec 3
7:00 PM
Sun, Dec 3
8:00 PM
Sun, Dec 3
9:00 PM
Sun, Dec 3
10:00 PM
Sun, Dec 3
11:00 PM
Mon, Dec 4
12:00 AM
Mon, Dec 4
1:00 AM
Mon, Dec 4
2:00 AM
Mon, Dec 4
3:00 AM
Mon, Dec 4
4:00 AM
Mon, Dec 4
5:00 AM
Mon, Dec 4
6:00 AM
Mon, Dec 4
7:00 AM
Mon, Dec 4
8:00 AM
Mon, Dec 4
9:00 AM
Mon, Dec 4
10:00 AM
Mon, Dec 4
11:00 AM
Mon, Dec 4
12:00 PM
Mon, Dec 4
1:00 PM
Mon, Dec 4
2:00 PM
Condition
Rain

Rain

Rain

Rain

Rain

Rain

Rain

Clouds

Rain

Rain

Clouds

Clouds

Clouds

Clouds

Clouds

Clouds

Clouds

Clouds

Clouds

Clouds

Clouds

Clouds

Clouds

Clouds

Clouds

Clouds

Clouds

Clouds

Clear

Clear

Clear

Clear

Clear

Clear

Clear

Clear

Clear

Clear

Clear

Clear

Clouds

Clouds

Clouds

Clouds

Clouds

Clouds

Clouds

Clouds
Temperature 64°F64°F63°F62°F62°F61°F61°F60°F59°F59°F59°F58°F57°F56°F55°F54°F54°F55°F57°F59°F60°F59°F59°F59°F58°F56°F52°F51°F50°F48°F48°F47°F46°F46°F45°F45°F44°F44°F44°F46°F49°F48°F51°F52°F53°F54°F55°F55°F
Feels Like 65°F64°F64°F63°F63°F62°F61°F60°F60°F59°F59°F58°F57°F56°F55°F54°F54°F55°F56°F57°F59°F57°F57°F57°F57°F54°F50°F49°F47°F46°F45°F44°F43°F42°F42°F41°F40°F40°F40°F40°F44°F43°F48°F49°F50°F51°F52°F52°F
Cloudiness 100%100%100%100%100%100%100%100%100%100%100%100%100%100%100%100%100%100%100%100%100%100%100%100%100%100%99%89%0%0%0%0%0%0%5%5%8%8%8%9%100%51%34%26%21%17%56%45%
Visibility 6 mi6 mi4 mi5 mi6 mi6 mi6 mi1 mi6 mi6 mi6 mi6 mi6 mi6 mi6 mi6 mi6 mi6 mi6 mi6 mi6 mi6 mi6 mi6 mi6 mi6 mi6 mi6 mi6 mi6 mi6 mi6 mi6 mi6 mi6 mi6 mi6 mi6 mi6 mi6 mi6 mi6 mi6 mi6 mi6 mi6 mi6 mi6 mi
Precipitation 88%100%100%100%88%96%96%76%92%96%36%20%8%4%4%0%0%0%0%0%0%0%0%0%0%0%0%0%0%0%0%0%0%0%0%0%0%0%0%0%0%0%0%0%0%0%0%0%
Humidity 98%97%97%98%97%98%99%99%98%98%97%98%98%98%98%98%97%91%79%66%59%59%57%55%57%63%68%71%73%74%75%76%76%75%75%78%82%84%82%74%64%68%59%50%45%43%42%43%
Dew Point 64°F63°F62°F62°F61°F60°F60°F60°F59°F58°F58°F57°F56°F55°F54°F54°F53°F52°F50°F47°F46°F44°F44°F43°F43°F43°F42°F42°F41°F40°F40°F40°F39°F38°F38°F38°F39°F39°F39°F38°F37°F38°F37°F34°F32°F32°F32°F32°F
Pressure 29.97"29.94"29.91"29.91"29.88"29.85"29.85"29.85"29.85"29.83"29.83"29.83"29.83"29.85"29.85"29.88"29.91"29.91"29.94"29.94"29.91"29.91"29.91"29.91"29.91"29.91"29.91"29.94"29.94"29.94"29.94"29.94"29.91"29.91"29.88"29.88"29.88"29.85"29.83"29.88"29.91"29.91"29.94"29.97"29.97"29.97"29.97"30.03"
Wind Speed 3.9 mph3.6 mph2.4 mph4.3 mph2.6 mph4.5 mph3.7 mph4.4 mph5.8 mph5.7 mph4.2 mph5.4 mph4.7 mph4.5 mph5.1 mph6.9 mph7.5 mph6.7 mph9.1 mph11 mph12.8 mph11.4 mph10.4 mph9.3 mph7 mph5 mph5.1 mph5.8 mph5.9 mph5.5 mph5.7 mph6.1 mph5.6 mph6.3 mph5.6 mph6.9 mph6.5 mph7.2 mph7.5 mph10.7 mph14.7 mph13.4 mph16.2 mph17.2 mph16.8 mph17 mph16.1 mph15.5 mph
Wind
Direction
287°
WNW
288°
WNW
287°
WNW
219°
SW
208°
SSW
234°
SW
271°
W
285°
WNW
293°
WNW
291°
WNW
293°
WNW
283°
WNW
296°
WNW
272°
W
260°
W
258°
WSW
262°
W
242°
WSW
246°
WSW
260°
W
274°
W
273°
W
269°
W
271°
W
265°
W
247°
WSW
213°
SSW
218°
SW
217°
SW
216°
SW
207°
SSW
198°
SSW
204°
SSW
199°
SSW
194°
SSW
175°
S
176°
S
166°
SSE
182°
S
242°
WSW
262°
W
261°
W
269°
W
286°
WNW
278°
W
282°
WNW
289°
WNW
290°
WNW

Daily Forecast

Date High Low Precip. Humidity
Today
Dec 2

Rain
65 °F
59 °F
100%
99%
Sunday
Dec 3

Rain
60 °F
46 °F
96%
59%
Monday
Dec 4

Clouds
55 °F
41 °F
0%
45%
Tuesday
Dec 5

Clear
58 °F
37 °F
0%
40%
Wednesday
Dec 6

Clouds
49 °F
36 °F
0%
51%
Thursday
Dec 7

Clear
58 °F
36 °F
0%
37%
Friday
Dec 8

Clouds
60 °F
42 °F
0%
53%
Saturday
Dec 9

Rain
64 °F
55 °F
28%
68%
Sunday
Dec 10

Rain
60 °F
36 °F
88%
61%
Monday
Dec 11

Clear
55 °F
34 °F
0%
31%
Tuesday
Dec 12

Rain
50 °F
41 °F
84%
83%
Wednesday
Dec 13

Rain
49 °F
39 °F
100%
95%
Thursday
Dec 14

Rain
41 °F
30 °F
24%
44%
Friday
Dec 15

Clear
47 °F
27 °F
0%
33%
Saturday
Dec 16

Clear
49 °F
29 °F
0%
38%
Sunday
Dec 17

Clear
57 °F
33 °F
0%
34%

Temperature 8-14 Day Outlook



Precipitation 8-14 Day Outlook




Quick Links
Wheeler Lake News
Wheeler Lake Photos
Wheeler Lake Videos




About Us
Contact Us
Site Map
Search Site
Advertise With Us
   
www.WheelerLake.info
THE WHEELER LAKE WEBSITE

Copyright 2023, Lakes Online
Privacy    |    Legal